RADUGA 25 [-]

Last updated on Jan. 27, 2020, 4:39 a.m. UTC

1 20499U 90016A   20025.59369809  .00000063  00000-0  00000-0 0  9997
2 20499  14.5665 353.3453 0002565 358.5138 174.1553  1.00267814109498
UTC
Height (km)
Latitude
Longitude
Inclination
Orbital Period
UTC large
Height (km)
Speed (km/s)
/
Latitude / Longitude
Inclination (degrees)
Orbital Period (minutes)
Azimuth
Elevation
Range (km)
Doppler Factor
iOS Compass Heading
iOS Angle

Next 30 passes for location: Hong Kong

Rise time Rise Azimuth (degrees) Set time Set Azimuth (degrees) Duration Max altitude (degrees)

No matching passes for this satellites